SCP
0 0 0 0 0 0 0 0 0 0 0 0 0 0 0 0 0 0 0 0 0 0 1 1 1 1 1 1 1 1 1 1 1 0 0 0 0 0 0 0 0 0 0 0 0 0 0 0 0
0 0 0 0 0 0 0 0 0 0 0 0 0 0 0 0 0 0 0 0 0 0 1 1 1 1 1 1 1 1 1 1 1 0 0 0 0 0 0 0 0 0 0 0 0 0 0 0 0
0 0 0 0 0 0 0 0 0 0 0 0 0 0 0 0 0 0 0 0 0 1 1 1 1 1 1 1 1 1 1 1 1 0 0 0 0 0 0 0 0 0 0 0 0 0 0 0 0
0 0 0 0 0 0 0 0 0 0 0 0 0 0 0 0 0 0 0 0 0 1 1 1 1 1 1 1 1 1 1 1 1 0 0 0 0 0 0 0 0 0 0 0 0 0 0 0 0
0 0 0 0 0 0 0 0 0 0 0 0 0 0 0 0 0 0 0 0 0 1 1 1 1 1 1 1 1 1 1 1 1 0 0 0 0 0 0 0 0 0 0 0 0 0 0 0 0
0 0 0 0 0 0 0 0 0 0 0 0 0 0 0 0 0 0 0 0 0 0 1 1 1 1 1 1 1 1 1 1 1 0 0 0 0 0 0 0 0 0 0 0 0 0 0 0 0
0 0 0 0 0 0 0 0 0 0 0 0 0 0 0 0 0 0 0 0 0 0 1 1 1 1 1 1 1 1 1 1 1 0 0 0 0 0 0 0 0 0 0 0 0 0 0 0 0
0 0 0 0 0 0 0 0 0 0 0 0 0 0 0 0 0 0 0 0 0 0 0 0 0 0 0 0 0 0 0 0 0 0 0 0 0 0 0 0 0 0 0 0 0 0 0 0 0
0 0 0 0 0 0 0 0 0 0 0 0 0 0 0 0 0 0 0 0 0 0 0 0 0 0 0 0 0 0 0 0 0 0 0 0 0 0 0 0 0 0 0 0 0 0 0 0 0
0 0 0 0 0 0 0 0 0 0 0 0 0 0 0 0 0 0 0 0 0 0 0 0 0 0 0 0 0 0 0 0 0 0 0 0 0 0 0 0 0 0 0 0 0 0 0 0 0
0 0 0 0 0 0 0 0 0 0 0 0 0 0 0 0 0 0 0 0 0 0 0 0 0 0 0 0 0 0 0 0 0 0 0 0 0 0 0 0 0 0 0 0 0 0 0 0 0
0 0 0 0 0 0 0 0 0 0 0 0 0 0 0 0 0 0 0 0 0 0 0 0 0 0 0 0 0 0 0 0 0 0 0 0 0 0 0 0 0 0 0 0 0 0 0 0 0
0 0 0 0 0 0 0 0 0 0 0 0 0 0 0 0 0 0 0 0 0 0 0 0 0 0 0 0 0 0 0 0 0 0 0 0 0 0 0 0 0 0 0 0 0 0 0 0 0
0 0 0 0 0 0 0 0 0 0 0 0 0 0 0 0 0 0 0 0 0 0 0 0 0 0 0 0 0 0 0 0 0 0 0 0 0 0 0 0 0 0 0 0 0 0 0 0 0
0 0 0 0 0 0 0 0 0 0 0 0 0 0 0 0 0 0 0 0 0 0 0 0 0 0 0 0 0 0 0 0 0 0 0 0 0 0 0 0 0 0 0 0 0 0 0 0 0
0 0 0 0 0 0 0 0 0 0 0 0 0 0 0 0 0 0 0 0 0 0 0 0 0 0 0 0 0 0 0 0 0 0 0 0 0 0 0 0 0 0 0 0 0 0 0 0 0
0 0 0 0 0 0 0 0 0 0 0 0 0 0 0 0 0 0 0 0 0 0 0 0 0 0 0 0 0 0 0 0 0 0 0 0 0 0 0 0 0 0 0 0 0 0 0 0 0
0 0 0 0 0 0 0 0 0 0 0 0 0 0 0 0 0 0 0 0 0 0 0 0 0 0 0 0 0 0 0 0 0 0 0 0 0 0 0 0 0 0 0 0 0 0 0 0 0
0 0 0 0 0 0 0 0 0 0 0 0 0 0 0 0 0 0 0 0 0 0 0 0 0 0 0 0 0 0 0 0 0 0 0 0 0 0 0 0 0 0 0 0 0 0 0 0 0
0 0 0 0 0 0 0 0 0 0 0 0 0 0 0 0 0 0 0 0 0 0 0 0 0 0 0 0 0 0 0 0 0 0 0 0 0 0 0 0 0 0 0 0 0 0 0 0 0
0 0 0 0 0 0 0 0 0 0 0 0 0 0 0 0 0 0 0 0 0 0 0 0 0 0 0 0 0 0 0 0 0 0 0 0 0 0 0 0 0 0 0 0 0 0 0 0 0
0 0 0 0 0 0 0 0 0 0 0 0 0 0 0 0 0 0 0 0 0 0 0 0 0 0 0 0 0 0 0 0 0 0 0 0 0 0 0 0 0 0 0 0 0 0 0 0 0
0 0 0 0 0 0 0 0 0 0 0 0 0 0 0 0 0 0 0 0 0 0 0 0 0 0 0 0 0 0 0 0 0 0 0 0 0 0 0 0 0 0 0 0 0 0 0 0 0
0 0 0 0 0 0 0 0 0 0 0 0 0 0 0 0 0 0 0 0 0 0 0 0 0 0 0 0 0 0 0 0 0 0 0 0 0 0 0 0 0 0 0 0 0 0 0 0 0
0 0 0 0 0 0 0 0 0 0 0 0 0 0 0 0 0 0 0 0 0 0 0 0 0 0 0 0 0 0 0 0 0 0 0 0 0 0 0 0 0 0 0 0 0 0 0 0 0
0 0 0 0 0 0 0 0 0 0 0 0 0 0 0 0 0 0 0 0 0 0 0 0 0 0 0 0 0 0 0 0 0 0 0 0 0 0 0 0 0 0 0 0 0 0 0 0 0
0 0 0 0 0 0 0 0 0 0 0 0 0 0 0 0 0 0 0 0 0 0 0 0 0 0 0 0 0 0 0 0 0 0 0 0 0 0 0 0 0 0 0 0 0 0 0 0 0
0 0 0 0 0 0 0 0 0 0 0 0 0 0 0 0 0 0 0 0 0 0 0 0 0 0 0 0 0 0 0 0 0 0 0 0 0 0 0 0 0 0 0 0 0 0 0 0 0
0 0 0 0 0 0 0 0 0 0 0 0 0 0 0 0 0 0 0 0 0 0 0 0 0 0 0 0 0 0 0 0 0 0 0 0 0 0 0 0 0 0 0 0 0 0 0 0 0
0 0 0 0 0 0 0 0 0 0 0 0 0 0 0 0 0 0 0 0 0 0 0 0 0 0 0 0 0 0 0 0 0 0 0 0 0 0 0 0 0 0 0 0 0 0 0 0 0
Wind_Speed
4 4 4 4 7 8 14 10 7 7 6 5 4 5 6 6 3 2 5 5 8 10 11 12 10 11 11 11 11 11 10 10 10 9 9 9 9 8 8 7 7 7 7 7 7 7 7 7 7
4 5 5 5 8 12 12 11 11 8 4 5 5 5 5 4 1 4 5 6 9 10 10 11 11 11 12 12 11 11 11 10 10 10 9 9 9 8 8 8 7 7 6 6 7 7 6 7 7
5 5 6 6 10 14 10 8 9 6 5 5 5 4 3 2 3 4 5 8 9 10 10 11 10 11 12 12 11 11 11 10 10 10 9 9 9 9 8 8 8 8 7 6 6 6 6 6 6
5 5 5 9 16 14 8 4 6 8 7 6 5 5 3 2 2 4 8 9 10 10 10 11 10 11 11 11 11 11 11 10 10 9 9 9 9 9 9 8 8 8 8 7 7 7 7 6 6
4 6 9 11 16 11 8 5 6 8 7 7 7 4 4 3 3 6 9 9 10 10 9 11 10 11 11 11 11 11 10 10 10 9 9 9 9 9 9 8 8 8 8 8 7 7 6 6 5
6 6 10 15 16 11 9 7 7 8 6 6 7 5 3 3 6 7 9 8 9 9 9 10 11 10 11 11 11 10 10 10 10 9 9 9 9 9 8 8 8 8 7 7 7 7 6 5 5
7 7 11 14 13 12 9 8 9 8 8 7 5 5 4 6 6 8 8 8 9 9 9 9 10 10 10 9 10 10 9 10 9 9 9 9 9 9 8 8 8 7 7 7 6 6 6 5 5
5 6 10 12 13 11 7 7 6 8 6 3 5 6 5 7 8 8 8 8 8 8 8 8 8 8 8 9 9 9 9 10 10 10 9 9 8 8 8 7 8 7 7 6 6 6 5 5 5
6 9 12 12 11 8 7 8 5 3 4 4 3 2 2 9 9 9 9 8 7 7 7 7 8 7 7 7 8 9 9 9 8 8 8 6 5 5 5 8 8 7 7 6 6 6 5 4 4
9 12 14 8 7 5 7 7 6 6 7 6 5 4 6 10 11 12 11 11 10 9 7 7 7 7 7 6 6 5 5 6 5 5 5 4 4 4 4 7 7 7 6 6 6 5 3 1 1
10 12 10 7 5 4 5 6 6 8 9 8 8 8 10 11 12 12 12 11 10 9 7 7 7 7 6 5 4 3 3 4 4 5 5 4 4 3 3 2 3 3 3 3 3 2 2 2 2
10 11 9 6 4 5 5 5 6 9 6 3 4 7 10 12 13 13 12 11 9 9 8 7 7 7 6 5 4 4 3 3 3 4 4 3 3 3 2 2 2 2 2 2 1 1 2 2 2
12 9 9 7 5 5 5 7 7 8 5 3 5 8 10 11 12 11 10 10 9 9 8 8 8 8 7 5 4 4 4 4 4 4 4 3 3 3 2 2 2 2 1 1 1 1 2 2 2
9 9 8 8 7 5 6 7 8 8 5 5 7 9 9 10 11 11 11 10 10 9 8 8 8 8 7 6 5 4 4 4 4 4 4 4 3 3 2 2 2 2 1 1 1 2 1 1 2
7 8 9 9 9 6 5 8 10 6 6 7 8 8 9 9 10 11 11 11 10 9 9 8 8 8 8 7 6 4 4 4 4 4 4 4 3 3 2 2 2 2 1 1 1 2 1 1 1
7 10 10 8 9 7 9 12 7 4 7 8 8 8 8 8 10 9 9 9 9 9 9 9 7 8 8 7 6 4 4 4 4 4 4 4 4 3 2 2 2 2 1 1 1 1 1 1 2
8 10 11 7 8 7 11 10 4 4 6 7 7 6 7 7 8 7 8 9 9 10 10 9 9 9 8 7 6 5 5 4 4 3 3 3 3 3 2 2 2 1 1 1 1 2 2 2 2
10 10 10 9 6 7 10 9 4 4 5 6 6 6 6 7 7 6 7 8 8 8 9 10 9 9 8 7 6 5 5 4 3 3 3 4 3 3 2 2 2 1 1 1 1 2 2 2 2
8 9 9 7 4 8 11 10 7 5 6 6 6 6 6 6 5 5 6 7 7 8 9 10 10 10 8 6 6 5 5 4 3 3 3 3 3 3 2 2 1 1 1 1 1 1 1 2 2
8 8 7 4 3 6 8 9 7 6 7 6 6 5 5 4 4 5 5 6 7 9 10 10 11 11 10 7 6 4 4 4 3 3 3 3 3 3 2 2 1 1 1 1 1 1 1 1 2
9 9 7 4 2 4 5 8 8 5 4 3 3 3 4 4 5 5 6 7 7 8 10 9 11 11 10 9 6 5 4 4 4 4 3 3 3 3 2 2 1 1 1 0 0 0 1 1 1
9 8 6 6 6 4 6 6 7 6 6 4 3 3 4 4 4 5 6 6 7 7 7 9 10 10 10 10 9 9 6 6 5 4 4 4 3 3 3 2 2 1 1 1 0 0 1 1 1
5 5 6 6 6 4 7 7 5 5 6 6 5 4 4 3 4 5 5 6 6 6 6 7 9 10 10 10 9 9 7 5 4 5 5 4 4 3 3 3 2 2 1 1 0 0 0 1 1
4 4 2 3 4 7 9 9 6 4 6 5 5 4 3 3 3 3 3 4 4 5 6 6 9 10 10 10 9 9 9 7 7 7 6 4 3 3 3 3 2 2 1 1 1 1 1 1 1
5 6 4 5 6 7 5 8 4 2 3 4 4 3 3 2 2 3 3 3 4 5 6 7 8 9 10 10 9 9 9 8 8 7 6 5 4 3 4 3 3 2 2 2 1 1 1 2 2
7 7 4 5 6 3 5 8 3 1 1 2 2 2 1 1 1 2 3 3 4 5 6 7 8 8 9 10 9 8 8 6 5 6 5 5 4 4 4 4 3 3 2 2 2 2 2 2 2
6 6 3 1 1 3 6 4 3 1 1 1 1 0 0 1 1 1 2 2 3 4 6 7 7 8 8 9 9 8 8 7 6 6 5 4 4 3 4 4 4 3 3 3 2 2 2 2 2
2 3 3 3 5 5 5 6 3 3 2 1 0 1 1 0 0 0 1 1 2 3 4 5 6 7 7 8 7 6 7 7 6 5 5 5 4 4 4 4 4 3 3 3 3 2 2 3 3
4 4 3 3 3 4 4 3 1 2 2 2 1 1 1 1 0 0 0 1 1 2 3 4 5 5 6 6 6 7 6 6 6 5 5 5 4 4 4 4 4 3 3 3 3 3 3 3 3
3 5 5 4 3 4 4 1 3 1 1 1 1 1 1 1 1 0 1 1 1 2 2 3 4 4 5 5 5 6 6 6 6 5 5 5 5 4 4 4 4 3 3 3 3 3 3 4 4
Wind_Direction
208 197 195 201 210 223 230 216 212 190 196 198 194 201 212 206 205 94 86 142 141 143 144 144 137 135 131 128 123 119 116 113 113 116 118 118 116 113 112 109 106 103 100 99 97 93 90 87 86
194 184 196 210 225 220 222 214 209 203 167 156 183 209 211 206 22 85 127 139 145 141 143 141 133 132 129 126 123 119 115 112 110 109 110 111 111 110 107 104 102 100 98 95 91 87 85 85 84
180 210 209 209 224 227 220 201 209 183 173 184 179 205 224 161 139 129 125 146 145 140 140 131 131 130 127 124 121 118 116 112 109 107 105 103 102 102 100 98 94 91 90 91 89 85 84 85 85
187 195 212 227 225 228 236 185 178 176 181 199 197 176 157 71 109 120 135 151 146 141 138 130 130 129 126 123 120 117 115 113 110 107 104 102 99 95 93 90 86 83 82 81 82 81 79 76 77
212 209 208 223 230 225 227 222 200 194 183 187 205 195 156 124 124 136 147 151 145 137 134 133 127 128 126 124 121 118 115 114 111 108 105 102 98 95 90 87 83 79 77 76 75 73 73 71 69
199 215 218 220 222 219 219 211 208 212 197 190 204 201 160 133 148 147 150 150 142 137 136 134 125 122 123 123 121 118 116 114 111 108 104 101 97 93 90 85 81 78 73 70 68 65 64 65 66
214 215 228 228 224 220 215 208 217 214 210 202 202 194 161 156 146 149 150 146 141 139 138 139 138 130 122 119 118 117 115 113 110 106 101 96 94 92 89 84 79 75 71 67 63 62 61 61 61
230 227 228 225 223 222 204 202 221 224 217 179 211 210 173 151 149 152 149 147 142 142 142 144 144 142 140 130 113 111 108 108 105 99 95 93 95 93 87 84 76 74 71 67 64 61 59 57 57
215 229 226 219 222 216 188 202 203 234 191 195 223 286 93 138 154 158 158 156 153 150 148 148 146 144 140 132 123 118 110 106 111 106 100 104 106 100 91 74 72 71 68 64 61 58 53 54 70
207 226 228 229 233 220 196 210 190 196 205 205 200 182 148 157 171 176 176 173 170 164 156 156 153 148 143 137 136 132 127 124 120 116 112 105 97 87 86 83 74 73 70 71 60 52 53 9 59
211 230 230 231 236 231 210 213 205 213 222 220 207 180 168 175 184 188 186 181 175 168 161 161 157 154 148 143 137 129 124 122 119 116 113 112 105 101 90 89 91 86 78 70 66 49 32 23 17
219 231 232 232 228 231 221 210 217 230 241 246 208 177 178 187 192 193 189 182 175 172 170 165 160 157 152 144 135 134 131 128 122 119 119 118 107 99 90 84 80 73 62 49 39 33 38 26 18
222 223 226 230 226 236 232 226 235 240 251 234 188 185 194 198 199 198 193 185 180 178 173 170 168 161 154 146 140 138 135 132 126 122 115 115 114 110 104 91 79 70 56 47 26 27 29 16 15
216 222 226 232 229 232 232 243 242 238 226 204 195 199 201 202 201 197 193 188 184 180 176 172 172 166 158 154 149 142 134 128 125 119 116 117 112 113 112 105 86 70 50 30 17 25 8 6 4
211 218 228 227 228 224 222 241 235 229 211 208 207 205 203 206 203 201 196 193 187 180 176 174 171 167 163 157 151 141 136 135 127 120 121 118 113 118 116 104 91 66 48 34 25 32 8 8 1
201 214 225 221 218 215 220 237 223 211 208 210 210 208 206 206 207 206 199 194 188 182 179 175 170 167 164 156 148 140 139 137 131 127 127 123 119 119 116 106 85 60 45 35 34 11 9 6 350
198 215 221 213 207 204 219 240 219 205 208 206 204 204 205 204 204 204 201 195 191 185 180 176 172 169 164 153 145 139 137 136 132 132 130 129 127 128 122 104 89 80 57 40 32 21 360 356 350
204 213 216 215 195 209 222 235 228 213 218 219 214 210 208 209 207 199 195 192 189 184 181 177 171 168 159 150 143 136 138 140 136 137 135 139 134 136 124 115 103 90 83 55 35 38 16 354 340
215 214 217 218 199 217 227 239 241 232 230 231 225 218 216 216 206 191 188 183 182 180 181 178 173 168 163 160 161 158 157 153 149 145 143 148 144 141 134 126 122 117 89 56 38 28 22 8 339
208 213 215 213 206 224 232 244 239 233 229 229 228 223 217 209 193 187 184 182 184 182 183 183 180 175 175 175 167 159 150 154 149 147 151 157 155 151 149 146 144 138 127 98 57 19 352 8 348
213 212 210 197 196 219 236 241 224 220 214 214 231 233 223 213 208 198 192 189 187 187 188 187 184 180 179 171 155 141 138 144 158 165 163 169 168 162 163 168 159 154 182 160 57 335 319 338 358
214 213 207 194 194 205 213 240 212 206 208 215 223 231 233 227 219 207 201 199 196 191 189 190 186 183 178 173 172 169 175 177 178 170 167 166 172 171 173 176 177 175 185 178 190 298 305 288 313
207 197 203 205 210 224 212 235 223 189 218 227 231 236 239 234 225 215 210 206 198 188 183 186 186 183 178 181 182 182 184 180 165 164 168 169 170 177 179 181 182 186 191 187 195 211 255 276 288
151 145 142 185 204 227 213 219 230 189 220 229 233 235 232 227 221 215 207 199 190 181 178 178 185 183 181 183 185 188 186 180 171 174 173 176 174 179 182 186 189 192 192 192 206 216 227 247 259
173 161 166 186 205 225 187 215 236 188 222 237 243 238 225 204 197 198 191 192 187 183 182 182 184 184 183 184 187 188 189 187 184 181 181 181 181 186 189 190 194 194 195 196 203 218 230 236 248
198 199 208 206 205 190 185 217 201 84 306 270 267 254 223 197 197 205 198 194 191 186 185 185 185 185 184 184 186 187 189 190 189 188 185 189 189 189 187 193 198 200 201 202 206 219 233 243 251
190 208 254 258 180 206 203 212 224 168 249 279 306 347 261 244 220 210 199 191 190 185 186 187 184 184 185 184 184 186 187 189 188 187 189 189 186 182 186 193 197 197 203 210 215 227 234 250 261
221 178 194 206 200 215 209 218 218 193 220 245 328 331 321 298 244 177 186 186 188 181 180 180 180 181 183 183 183 183 185 187 186 185 187 186 183 179 182 189 192 194 201 208 219 234 243 256 264
166 182 211 211 254 239 219 206 103 224 224 226 262 330 322 302 273 129 157 167 167 155 161 166 172 172 177 181 180 180 180 182 184 185 186 184 178 179 184 187 189 194 204 213 224 239 247 258 269
213 203 199 212 218 245 252 225 71 317 307 252 289 341 353 344 336 35 99 121 131 139 146 157 167 169 174 176 177 179 175 177 181 182 183 180 177 179 183 184 189 197 208 219 231 245 250 261 271